This demonstration page uses our WeatherBlox Daily Observations layout. Learn more.

Left ArrowRight Arrow

Hourly Observations for May 7, 2017

Temp ( °F °C ) Dew Point ( °F °C ) Humidity (%) Winds ( mph kmh ) Pressure ( in mb ) Visibility ( mi km ) Precip ( " mm )
12:53 am 00:53 Cloudy 56 13.3 50 10 81 81 N 6 9 29.89 1012 10 16 0.00 0.03
1:53 am 01:53 Cloudy 55 12.8 50 10 83 83 NW 6 9 29.90 1013 10 16 0.00 0.00
2:53 am 02:53 Mostly Cloudy 54 12.2 50 10 87 87 NNW 5 7 29.91 1013 10 16 0.00 0.00
3:53 am 03:53 Mostly Cloudy 53 11.7 49 9.4 86 86 Calm 29.91 1013 10 16 0.00 0.00
4:53 am 04:53 Partly Cloudy 52 11.1 49 9.4 89 89 Calm 29.92 1013 10 16 0.00 0.00
5:53 am 05:53 Clear 49 9.4 48 8.9 97 97 Calm 29.93 1013 10 16 0.00 0.00
6:53 am 06:53 Sunny 48 8.9 47 8.3 96 96 Calm 29.96 1014 9 14 0.00 0.00
7:53 am 07:53 Sunny 52 11.1 50 10 93 93 Calm 29.98 1015 10 16 0.00 0.00
8:53 am 08:53 Sunny 56 13.3 49 9.4 77 77 NNW 7 11 30.01 1016 10 16 0.00 0.00
9:53 am 09:53 Sunny 60 15.6 42 5.6 52 52 NNW 7 11 30.03 1017 10 16 0.00 0.00
10:53 am 10:53 Sunny 61 16.1 36 2.2 39 39 NW 9 15 30.04 1017 10 16 0.00 0.00
11:53 am 11:53 Sunny 63 17.2 33 0.6 33 33 NW 10 17 30.04 1017 10 16 0.00 0.00
12:53 pm 12:53 Sunny 64 17.8 33 0.6 32 32 N 9 15 30.03 1017 10 16 0.00 0.00
1:53 pm 13:53 Sunny 67 19.4 35 1.7 31 31 NW 14 22 30.02 1017 10 16 0.00 0.00
2:53 pm 14:53 Sunny 68 20 35 1.7 30 30 WNW 12 19 30.00 1016 10 16 0.00 0.00
3:53 pm 15:53 Sunny 68 20 35 1.7 30 30 NNW 10 17 29.98 1015 10 16 0.00 0.00
4:53 pm 16:53 Sunny 70 21.1 38 3.3 31 31 W 12 19 29.97 1015 10 16 0.00 0.00
5:53 pm 17:53 Sunny 70 21.1 38 3.3 31 31 WNW 9 15 29.97 1015 10 16 0.00 0.00
6:53 pm 18:53 Sunny 70 21.1 40 4.4 34 34 NW 9 15 29.96 1015 10 16 0.00 0.00
7:53 pm 19:53 Sunny 67 19.4 40 4.4 37 37 WNW 6 9 29.97 1015 10 16 0.00 0.00
8:53 pm 20:53 Clear 62 16.7 43 6.1 50 50 Calm 29.98 1015 10 16 0.00 0.00
9:53 pm 21:53 Clear 59 15 44 6.7 58 58 Calm 30.00 1016 10 16 0.00 0.00
10:53 pm 22:53 Clear 55 12.8 48 8.9 77 77 Calm 30.01 1016 10 16 0.00 0.00
11:53 pm 23:53 Clear 52 11.1 46 7.8 80 80 Calm 30.01 1016 10 16 0.00 0.00

Powered by AerisWeather